User: anonymous   Login
Location: Abraham Lincoln Continuation High School
(33.9711°N, 117.3662°W)
Time: 21:36:00
(UTC+00:00)
Language:

NOSS 3-4 (A) - Orbit

View from above orbital plane
View from above orbital plane
View from above satellite
View from above satellite

Ground track
Ground track

The orbit data is extracted from the following two-line orbital elements,

1 31701U 07027A   21329.72784277 0.00000050  00000-0  66088-4 0    09
2 31701  63.3939 263.3362 0327270  20.0660 339.9340 13.40823401    04
Epoch (UTC): 25 November 2021 17:28:05
Eccentricity: 0.0327270
inclination: 63.3939°
perigee height: 861 km
apogee height: 1351 km
right ascension of ascending node: 263.3362°
argument of perigee: 20.0660°
revolutions per day: 13.40823401
mean anomaly at epoch: 339.9340°
orbit number at epoch: 0

The dashed part of the orbit path shows where the satellite is in the earth's shadow,  

DLR